Weather Roundup
Issued by NWS Springfield, MO

Home | Current Version | Previous Version | Text Only | Print | Product List | Glossary On
Versions: 1 2 3 4 5 6 7 8 9 10 11 12 13 14 15 16 17 18 19 20 21 22 23 24 25 26 27 28 29 30 31 32 33 34 35 36 37 38 39 40 41 42 43 44 45 46 47 48 49 50
000
NZUS99 KSGF 211159
HRRSGF

HOURLY WEATHER
NATIONAL WEATHER SERVICE SPRINGFIELD MO
700 AM CDT THU AUG 21 2014

......SGF CWA......

CITY           SKY/WX    TMP DP  RH WIND       PRES   REMARKS
SPRINGFIELD    CLEAR     73  69  87 S12       30.02R
6HR MIN TEMP:  73; 6HR MAX TEMP:  77;

JOPLIN         CLEAR     78  69  73 S17G24    29.98R
6HR MIN TEMP:  77; 6HR MAX TEMP:  79;

WEST PLAINS    CLEAR     74  70  87 S6        30.08R
6HR MIN TEMP:  73; 6HR MAX TEMP:  78;

ROLLA          CLEAR     73  67  81 S10       29.99S
6HR MIN TEMP:  72; 6HR MAX TEMP:  74;

OSAGE BEACH    CLEAR     72  66  83 S6        29.99R
BRANSON        CLEAR     75  70  83 S6        30.06R

......SURROUNDING SGF CWA......

CITY           SKY/WX    TMP DP  RH WIND       PRES   REMARKS
CHANUTE        CLEAR     77  70  79 S15       29.94R
PARSONS        CLEAR     76  69  79 S8        29.96R
COFFEYVILLE    CLEAR     78  71  79 S15G23    29.94R
EMPORIA        CLEAR     74  69  85 S15       29.90R
SILOAM SPRINGS CLEAR     73  64  73 S10       30.05R
HARRISON AR    CLEAR     73  71  93 SE9       30.07R
NEAR YELLVILLE CLEAR     72  66  83 CALM      30.05R

......KANSAS AND MISSOURI......

CITY           SKY/WX    TMP DP  RH WIND       PRES   REMARKS
KANSAS CTY INT MOCLDY    78  69  73 S15       29.90R
DOWNTOWN KC    CLEAR     80  69  69 SW10      29.89R
COLUMBIA       CLEAR     71  68  90 S9        29.96S
SEDALIA        CLEAR     77  68  73 S14       29.95S
ST JOSEPH      PTCLDY    76  70  82 S10       29.86R
ST LOUIS       PTCLDY    76  68  76 SW10      29.98R
SPIRIT OF STL  CLEAR     74  68  81 SW7       29.97R
KIRKSVILLE     CLEAR     73  67  81 S9        29.92R
WICHITA        PTCLDY    76  68  76 S13       29.89R
TOPEKA         CLEAR     80  71  74 S13G21    29.87R
OLATHE         PTCLDY    76  70  82 S13       29.91R

......TENNESSEE......

CITY           SKY/WX    TMP DP  RH WIND       PRES   REMARKS
MEMPHIS        PTCLDY    77  71  82 SW6       30.10R
NASHVILLE      MOCLDY    71  70  96 S5        30.11R

......ARKANSAS.......

CITY           SKY/WX    TMP DP  RH WIND       PRES   REMARKS
FAYETTEVILLE   CLEAR     74  70  87 SW5       30.05R
FT SMITH       CLEAR     75  71  87 NE3       30.03R
LITTLE ROCK    PTCLDY    74  69  85 SW8       30.08R

......OKLAHOMA.......

CITY           SKY/WX    TMP DP  RH WIND       PRES   REMARKS
TULSA          CLEAR     78  71  79 S13       29.95R
PONCA CITY     CLEAR     78  69  73 S9        29.92R
MCALESTER      CLEAR     77  72  84 S8        30.01R
OKLAHOMA CITY  PTCLDY    74  69  85 S10       29.96R

......IOWA............

CITY           SKY/WX    TMP DP  RH WIND       PRES   REMARKS
DES MOINES     CLOUDY    77  69  76 SW9       29.82R
QUAD CITIES    MOCLDY    73  69  87 CALM      29.90R

......ILLINOIS........

CITY           SKY/WX    TMP DP  RH WIND       PRES   REMARKS
QUINCY         CLEAR     74  67  78 S10       29.92R
CHICAGO        TSTM      72  67  84 CALM      29.94R




USA.gov is the U.S. government's official web portal to all federal, state and local government web resources and services.